OPS 4682 DEB, 38406

Orbit data source: Space-Track

OPS 4682 DEB, 38406 is space debris in LEO originally from a launch on Sat, 03 Apr 1965 UTC launched from the Air Force Western Test Range (AFWTR). Debris objects in space refer to the collection of defunct objects orbiting the Earth. Examples of debris include non-operational satellites, rocket bodies, and fragments generated from explosions, collisions, or faulty payload assembly.

Loading next visibility...
Identifier
38406, 1965-027DK
Orbit
LEO
Country
Flag of USUS
Related business
Manufacturer
Unknown
Mission
Spacecraft
Bus & Motor
Unknown
Mass
Unknown
Launch date (UTC)
1965-04-03 (61 years ago)
Launch vehicle
Unknown
Launch site
Air Force Western Test Range (AFWTR)
Object type
Payload
Rocket body
Debris
Shape & HBR
Unknown shape, 0.1 m
Radar Cross Section
Medium (>0.1 m² and <1 m²)

Expand to show TLE details & history
Last TLE update: 6 days ago

TLE from 6 days ago
0 OPS 4682 DEB
1 38406U 65027DK  26169.84979105  .00000844  00000-0  27670-2 0  9998
2 38406  90.2415  11.2041 0022933 243.7043 116.1723 13.00312973555482
Epoch: 2026-06-18T20:23Z
TLE epoch observation values (Epoch: 2026-06-18T20:23:41.946Z)
Latitude
-0.00006°
Longitude
158.19211°
Altitude
1,271.505 km
Speed
7.216 km/s
True Right ascension
00h 44m 48s
True Declination
0° 00' 00"
Sunlit
Object was in daylight at epoch
Visualization orbit readout
Latitude
Unknown
Longitude
Unknown
Altitude
Unknown
Speed
Unknown
Apparent Right ascension
Unknown
Apparent Declination
Unknown
Sunlit
N/A
Visualization observer readout
Local Sidereal Time
01:48:59
Azimuth
Unknown
Elevation
Unknown
Doppler factor
Unknown
Orbital elements
Apogee altitude
1,275.499 km
Perigee altitude
1,240.475 km
Semi-major axis
7,636.124 km
Eccentricity
0.00229
Inclination
90.2415°
RAAN
11.2041°
Arg. of periapsis
243.7043°
True anomaly
116.40785°
Mean anomaly
116.1723°
Eccentric anomaly
116.29011°
Mean motion
3.25262 °/min
Orbital period
110.68 mins
BSTAR
0.002767
Loading maneuver chart data...
Computing Atmospheric mass density...
Loading historical data...
Loading historical data...
Loading historical data...
Loading historical data...
Loading historical data...
Loading historical data...
Loading historical data...

Documentation

Showing up to 5 results
|